Location: Goettingen
(51.5300°N, 9.9433°E)
Time: 13:55:22
(UTC+01:00)

ISS - Pass Details

Date: 21 November 2023
Orbit: 416 x 417 km, 51.6° (Epoch: 02 December)

Event Time Altitude Azimuth Distance (km) Brightness Sun altitude
Rises 19:50:04 0° 267° (W) 2,362 1.1 -31.6°
Reaches altitude 10° 19:52:10 10° 267° (W) 1,499 -0.1 -31.9°
Enters shadow 19:52:17 11° 267° (W) 1,447 -0.2 -31.9°
